TimeMDT,TemperatureF,Dew PointF,Humidity,Sea Level PressureIn,VisibilityMPH,Wind Direction,Wind SpeedMPH,Gust SpeedMPH,PrecipitationIn,Events,Conditions,WindDirDegrees,DateUTC
12:53 AM,45.0,37.9,76,29.99,10.0,East,3.5,-,N/A,,Clear,80,2012-10-16 06:53:00
1:53 AM,45.0,37.9,76,29.98,10.0,East,5.8,-,N/A,,Clear,100,2012-10-16 07:53:00
2:53 AM,45.0,37.0,74,29.98,10.0,ESE,9.2,-,N/A,,Clear,120,2012-10-16 08:53:00
3:53 AM,44.6,37.4,76,30.07,10.0,ENE,6.9,-,N/A,,Clear,70,2012-10-16 09:53:00
4:53 AM,42.1,37.0,82,29.96,10.0,ESE,10.4,-,N/A,,Clear,120,2012-10-16 10:53:00
5:53 AM,44.1,37.0,76,29.96,10.0,ESE,6.9,-,N/A,,Clear,110,2012-10-16 11:53:00
6:53 AM,43.0,37.0,80,29.97,10.0,Calm,Calm,-,N/A,,Clear,0,2012-10-16 12:53:00
7:53 AM,42.1,36.0,79,30.00,10.0,East,10.4,-,N/A,,Clear,100,2012-10-16 13:53:00
8:53 AM,46.9,37.0,68,29.98,10.0,SE,13.8,-,N/A,,Clear,130,2012-10-16 14:53:00
9:53 AM,52.0,37.0,57,29.96,10.0,SSE,4.6,-,N/A,,Clear,150,2012-10-16 15:53:00
10:53 AM,57.9,36.0,44,29.93,10.0,Calm,Calm,-,N/A,,Clear,0,2012-10-16 16:53:00
11:53 AM,60.1,36.0,41,29.90,10.0,Calm,Calm,-,N/A,,Clear,0,2012-10-16 17:53:00
12:53 PM,64.0,37.0,37,29.85,10.0,Variable,4.6,-,N/A,,Clear,0,2012-10-16 18:53:00
1:53 PM,66.9,37.0,33,29.78,10.0,West,5.8,-,N/A,,Clear,280,2012-10-16 19:53:00
2:53 PM,66.9,37.9,34,29.73,10.0,NNW,5.8,-,N/A,,Clear,340,2012-10-16 20:53:00
3:53 PM,68.0,37.9,33,29.70,10.0,WNW,5.8,-,N/A,,Clear,290,2012-10-16 21:53:00
4:53 PM,70.0,37.0,30,29.67,10.0,NW,4.6,-,N/A,,Clear,310,2012-10-16 22:53:00
5:53 PM,70.0,36.0,29,29.64,10.0,Calm,Calm,-,N/A,,Clear,0,2012-10-16 23:53:00
6:53 PM,63.0,37.0,38,29.65,10.0,Calm,Calm,-,N/A,,Clear,0,2012-10-17 00:53:00
7:53 PM,60.1,36.0,41,29.66,10.0,ENE,5.8,-,N/A,,Clear,70,2012-10-17 01:53:00
8:53 PM,60.1,37.0,42,29.65,10.0,North,8.1,-,N/A,,Clear,10,2012-10-17 02:53:00
9:53 PM,62.1,37.9,41,29.67,10.0,NW,13.8,-,N/A,,Scattered Clouds,320,2012-10-17 03:53:00
10:53 PM,55.9,43.0,62,29.70,10.0,WNW,9.2,-,N/A,,Clear,290,2012-10-17 04:53:00
11:53 PM,61.0,36.0,39,29.72,10.0,NW,24.2,29.9,N/A,,Partly Cloudy,310,2012-10-17 05:53:00